INTELSAT 39 (IS-39)

Last updated on Tue Sep 16 2025 00:02:50 GMT+0000 (Coordinated Universal Time)

1 44476U 19049B 25258.62397192 .00000017 00000+0 00000+0 0 9995 2 44476 0.0165 174.7887 0000471 121.1322 345.4848 1.00271195 22371
UTC large
Height (km)
Speed (km/s)
/
Latitude / Longitude
Inclination (degrees)
Orbital Period (minutes)
Azimuth
Elevation
Range (km)
Doppler Factor

Next 0 passes for location: London (51.5072 / 0.1276)

Sorry there are no passes over London.